Data;PM2.5 (ug/m3)
11/12/2012;33.369978561997414
12/12/2012;21.7830341685902
13/12/2012;47.43223061826494
14/12/2012;43.1978465764246
15/12/2012;10.67336885900189
16/12/2012;9.526108132502895
17/12/2012;8.590391767294042
18/12/2012;22.416706205910717
19/12/2012;21.182602233568605
20/12/2012;28.955528643202598
21/12/2012;23.316809357537164
22/12/2012;38.135294928240825
23/12/2012;37.71785724427965
24/12/2012;67.52443510298103
25/12/2012;103.29033146050953
26/12/2012;46.339849837056946
27/12/2012;12.849137343875883
28/12/2012;7.441568037325214
29/12/2012;8.411752838395469
30/12/2012;22.52684295898183
31/12/2012;32.152050463667834
01/01/2013;67.47013753584062
02/01/2013;70.79916159554932
03/01/2013;11.72605571611512
04/01/2013;43.125915232222006
05/01/2013;66.67641318625819
06/01/2013;32.7719609669466
07/01/2013;38.80739178024923
08/01/2013;43.75632955763075
09/01/2013;56.624274750923895
10/01/2013;47.4195174685754
11/01/2013;24.665146718270588
12/01/2013;30.08341182820157
13/01/2013;22.81749891286452
14/01/2013;12.545153455068874
15/01/2013;10.67300182832405
16/01/2013;4.616048886785725
17/01/2013;9.072390226826508
18/01/2013;15.517847190148641
19/01/2013;24.672937494727915
20/01/2013;21.099257720721308
21/01/2013;6.41939585270981
22/01/2013;6.503109749737713
23/01/2013;14.29316818958848
24/01/2013;5.182432698458433
25/01/2013;5.336807577622434
26/01/2013;17.783629359139336
27/01/2013;27.868457177612516
28/01/2013;22.978193108539408
29/01/2013;11.774669647714193
30/01/2013;20.163668140437867
31/01/2013;18.73260719390592
01/02/2013;13.929461351887921
02/02/2013;4.913556085143785
03/02/2013;4.725770927637091
04/02/2013;12.215445879963308
05/02/2013;29.40848297442245
06/02/2013;3.104365776219437
07/02/2013;9.232466118480371
08/02/2013;7.962274095490731
09/02/2013;7.26015021475181
10/02/2013;18.96639681541729
11/02/2013;12.058473820484206
12/02/2013;13.590296800103452
13/02/2013;13.139146006380708
14/02/2013;13.234656327116124
15/02/2013;22.421743280279546
16/02/2013;15.050783866975042
17/02/2013;15.964171007824408
18/02/2013;14.354126238342454
19/02/2013;26.68143342507311
20/02/2013;54.60669124921163
21/02/2013;25.57617230207515
22/02/2013;5.212809130424908
23/02/2013;8.646302332080346
24/02/2013;9.073546136022028
25/02/2013;12.419241427210604
26/02/2013;15.771774425440364
27/02/2013;20.063403384907687
28/02/2013;16.375810886966228
01/03/2013;27.37319394165315
02/03/2013;13.900426089805352
03/03/2013;17.94475074274992
04/03/2013;22.163753953162168
05/03/2013;33.55852809932589
06/03/2013;12.962461651861668
07/03/2013;27.76246018074572
08/03/2013;8.904584312384282
09/03/2013;4.667233368513979
10/03/2013;3.803300143405795
11/03/2013;5.040086199258291
12/03/2013;3.8583686498165752
13/03/2013;8.106801373902217
14/03/2013;5.860123338461669
15/03/2013;5.63688994985603
16/03/2013;14.413570431537098
17/03/2013;24.012195774842368
18/03/2013;4.27076403103499
19/03/2013;3.8803614459947404
20/03/2013;9.528358131439862
21/03/2013;8.941253406278436
22/03/2013;13.054764049086305
23/03/2013;18.645418090124924
24/03/2013;10.2405758524969
25/03/2013;4.022691579355682
26/03/2013;10.053823556408577
27/03/2013;8.244263759586547
28/03/2013;19.151458030615796
29/03/2013;8.619483056747251
30/03/2013;5.579159567532563
31/03/2013;3.3385782433191533
01/04/2013;8.227537720025747
02/04/2013;3.1445855871361417
03/04/2013;6.725048566933965
04/04/2013;10.030465530024635
05/04/2013;5.38924840478141
06/04/2013;6.583970749601877
07/04/2013;5.436086027633821
08/04/2013;16.239943500357093
09/04/2013;6.006039306190279
10/04/2013;4.489587571440799
11/04/2013;7.080104939499578
12/04/2013;5.41869458716386
13/04/2013;3.9054173171582365
14/04/2013;5.7530308742904
15/04/2013;7.220011868851312
16/04/2013;7.334562406192223
17/04/2013;9.717882417970234
18/04/2013;13.629617890191625
19/04/2013;11.57784858139025
20/04/2013;7.744066109135747
21/04/2013;3.377641946719817
22/04/2013;4.481104513350874
23/04/2013;4.553161731351995
24/04/2013;5.364917890272206
25/04/2013;10.736179274822492
26/04/2013;10.98792586657736
27/04/2013;9.766425556937854
28/04/2013;6.118834855578057
29/04/2013;9.563833056099304
30/04/2013;11.644159663460833
01/05/2013;8.75113468422005
02/05/2013;8.15573834196572
03/05/2013;7.503472156620755
04/05/2013;5.94246613291753
05/05/2013;5.851800191940533
06/05/2013;5.063948541154788
07/05/2013;7.310344717293833
08/05/2013;8.183224847736872
09/05/2013;9.71847678648414
10/05/2013;9.423960436376289
11/05/2013;6.785604282546168
12/05/2013;4.6491211978511675
13/05/2013;2.7467893750417804
14/05/2013;5.137484194452546
15/05/2013;5.840030953619215
16/05/2013;4.553310416187772
17/05/2013;4.13017327394012
18/05/2013;4.7836288787735
19/05/2013;2.8668370020004343
20/05/2013;2.872074163514309
21/05/2013;5.26789566286736
22/05/2013;4.017649453037559
23/05/2013;4.330684172203137
24/05/2013;2.4966884321429665
25/05/2013;2.9910186431577634
26/05/2013;3.4912902021700303
27/05/2013;4.373660751054988
28/05/2013;5.251798809113148
29/05/2013;2.9200081809660903
30/05/2013;2.178190621756447
31/05/2013;2.9791596305875814
01/06/2013;4.02206853688967
02/06/2013;5.976572725784472
03/06/2013;7.432277047675517
04/06/2013;5.341984329578196
05/06/2013;9.31781228257395
06/06/2013;6.062114794381192
07/06/2013;7.024914716142747
08/06/2013;7.493698843657101
09/06/2013;9.15256611202391
10/06/2013;4.893551700026874
11/06/2013;5.929824889285697
12/06/2013;9.719519200676505
13/06/2013;6.845502719852641
14/06/2013;8.681621485267842
15/06/2013;7.243789502916237
16/06/2013;4.462556262216913
17/06/2013;6.208510918786599
18/06/2013;10.373429470178154
19/06/2013;10.361687472973978
20/06/2013;9.296500490140883
21/06/2013;5.5441977674764145
22/06/2013;3.0435702302871768
23/06/2013;3.4524141577043905
24/06/2013;4.074181290719042
25/06/2013;6.18452615456679
26/06/2013;2.3879346651276876
27/06/2013;3.355022514131518
28/06/2013;5.397560531576585
29/06/2013;7.3302581248884
30/06/2013;6.824606850577495
01/07/2013;5.045828958034846
02/07/2013;5.788586086743072
03/07/2013;6.322758664293208
04/07/2013;6.1446377346512335
05/07/2013;8.363491138761995
06/07/2013;5.5588082738681495
07/07/2013;8.430727427038882
08/07/2013;7.571766681850081
09/07/2013;10.09267388233407
10/07/2013;11.948125830452172
11/07/2013;15.265728220125524
12/07/2013;10.321222858627637
13/07/2013;10.449857203121477
14/07/2013;7.864687614013454
15/07/2013;8.987401387607
16/07/2013;12.519300235835894
17/07/2013;11.9928674566986
18/07/2013;9.026040526065561
19/07/2013;8.201199099421501
20/07/2013;9.807718023792605
21/07/2013;12.545676076976703
22/07/2013;10.374450890698144
23/07/2013;10.745185923717283
24/07/2013;12.931787208219369
25/07/2013;10.38479498676992
26/07/2013;10.244463014933798
27/07/2013;9.068064946031472
28/07/2013;7.408071966101933
29/07/2013;6.956134385532803
30/07/2013;2.893669012045392
31/07/2013;2.6126195301405257
01/08/2013;3.0979749324878445
02/08/2013;3.4428067302011165
03/08/2013;4.575124553585318
04/08/2013;4.24166227372415
05/08/2013;5.110918704848672
06/08/2013;5.265250631491735
07/08/2013;6.561262947598458
08/08/2013;7.394837462800518
09/08/2013;3.2656695346883224
10/08/2013;4.164497402039065
11/08/2013;4.288887039023692
12/08/2013;4.634805932219347
13/08/2013;4.338617841578606
14/08/2013;4.223176154401154
15/08/2013;3.8650345801479284
16/08/2013;4.068083693591567
17/08/2013;4.809922515766488
18/08/2013;5.43739815881635
19/08/2013;6.159508000810941
20/08/2013;3.0096684417480395
21/08/2013;3.6889127587278683
22/08/2013;6.514996342278189
23/08/2013;8.326400146012505
24/08/2013;7.328095481710301
25/08/2013;3.5639349616184415
26/08/2013;2.9061022193119346
27/08/2013;3.4394587670470442
28/08/2013;3.9100204665714546
29/08/2013;4.191667648053004
30/08/2013;4.077595962146725
31/08/2013;4.948188528506499
01/09/2013;5.32833567342579
02/09/2013;6.443716972465727
03/09/2013;5.960047872463931
04/09/2013;4.183411042588866
05/09/2013;4.860213897330136
06/09/2013;5.141895029621406
07/09/2013;5.7423829607484445
08/09/2013;6.570021935516633
09/09/2013;3.3041988351097746
10/09/2013;2.802001323092721
11/09/2013;2.5441421577525842
12/09/2013;3.5837375119453023
13/09/2013;4.343996272629334
14/09/2013;4.1459279678761956
15/09/2013;4.37938060482564
16/09/2013;2.883982042975522
17/09/2013;2.3513068376893957
18/09/2013;3.393373000262202
19/09/2013;4.404531125134478
20/09/2013;5.038355780629502
21/09/2013;5.504441406927314
22/09/2013;4.135165878072278
23/09/2013;3.53940540738081
26/09/2013;5.761871804059907
27/09/2013;8.738743879728847
28/09/2013;10.104361354253118
29/09/2013;6.638672242672894
30/09/2013;6.619658035849451
01/10/2013;3.5919885664919597
02/10/2013;3.733288514251924
03/10/2013;6.1567925945807005
04/10/2013;8.169226796863972
05/10/2013;5.223685008230994
06/10/2013;1.3901983108345626
07/10/2013;3.1101594974752516
08/10/2013;4.445741802536779
09/10/2013;5.135613986725608
10/10/2013;6.678174893288976
11/10/2013;2.972156800632365
12/10/2013;4.845797374451326
13/10/2013;7.4978494874305195
14/10/2013;12.574553269810147
15/10/2013;14.885174227092001
16/10/2013;8.287741004303097
17/10/2013;8.71297363738219
18/10/2013;9.875294888185131
19/10/2013;11.300829849256427
20/10/2013;14.863735409908825
21/10/2013;6.1783066076125355
22/10/2013;10.206815307218221
23/10/2013;9.4833158340719
24/10/2013;8.750380379065044
25/10/2013;10.217936786098612
26/10/2013;11.509291367729505
27/10/2013;10.907717637174075
28/10/2013;10.958315936558776
29/10/2013;10.310472978817092
30/10/2013;9.902027145028114
31/10/2013;5.293741736395491
01/11/2013;7.955262362136
05/11/2013;7.880884141633005
06/11/2013;7.072133283213609
07/11/2013;7.771811939765596
08/11/2013;9.653641400155093
09/11/2013;4.457438555494365
10/11/2013;3.5943843807566904
11/11/2013;1.614908421053561
12/11/2013;3.77083748070584
13/11/2013;7.308947785115905
14/11/2013;8.844094490839375
15/11/2013;5.331836037875878
16/11/2013;6.039773986595612
17/11/2013;10.807991965180967
18/11/2013;8.817945794422094
19/11/2013;6.127597175652527
20/11/2013;4.8736458319083
21/11/2013;2.9451705479011965
22/11/2013;2.797403752296397
23/11/2013;4.625768274177487
24/11/2013;4.962526803375739
25/11/2013;5.208701271183214
26/11/2013;3.9690790298472467
27/11/2013;4.203552055732714
28/11/2013;7.0833083891968
29/11/2013;17.72530925737487
30/11/2013;18.137014213204385
01/12/2013;8.062432417445418
02/12/2013;5.097175129006306
03/12/2013;6.1673313118310435
04/12/2013;19.97804518673155
05/12/2013;32.16011632623732
06/12/2013;53.79422302086816
07/12/2013;45.65652825037638
08/12/2013;46.34674518638187
09/12/2013;56.97362159490585
10/12/2013;66.97635330624051
11/12/2013;45.11159143454503
12/12/2013;62.99750125664982
13/12/2013;21.301580099035586
14/12/2013;27.57813099887636
15/12/2013;23.39400781955984
16/12/2013;22.4804370297326
17/12/2013;32.550489079712
18/12/2013;37.28858679346611
19/12/2013;61.37014932745111
20/12/2013;58.22162407417112
21/12/2013;30.471363189330162
22/12/2013;22.309286707702
23/12/2013;22.34690466450684
24/12/2013;12.657929344640838
25/12/2013;8.528375692996715
26/12/2013;4.701427940390719
27/12/2013;12.767183968223906
28/12/2013;14.40548146119204
29/12/2013;6.746794907934057
30/12/2013;7.111259399786872
31/12/2013;11.947319390362162
01/01/2014;20.678556690944564
02/01/2014;29.840301285849677
03/01/2014;40.37691148741996
04/01/2014;14.333028418570757
05/01/2014;4.469446904543373
06/01/2014;10.418071379236524
07/01/2014;22.296402090866586
08/01/2014;25.825968649587836
09/01/2014;28.048242444202316
10/01/2014;18.751085887521
11/01/2014;24.516643201418432
12/01/2014;23.714815538459355
13/01/2014;27.07499506076177
14/01/2014;10.599688023659919
15/01/2014;8.647188518713746
16/01/2014;19.732131999760057
17/01/2014;7.2800479033341015
18/01/2014;6.8243149172861814
19/01/2014;11.348771252731483
20/01/2014;4.066345199373448
21/01/2014;9.162240830927175
22/01/2014;10.009122361573908
23/01/2014;20.123144706421428
24/01/2014;4.193839432103424
25/01/2014;8.844470917432982
26/01/2014;11.687721859084235
27/01/2014;13.753259914726934
28/01/2014;6.4067392637979035
29/01/2014;14.438995856556154
30/01/2014;12.20011151309471
31/01/2014;15.163779315141047
01/02/2014;5.830057297940052
02/02/2014;4.288117719913989
03/02/2014;4.316576477780513
04/02/2014;10.741608960335249
05/02/2014;4.3535283427620595
06/02/2014;6.159909766312275
07/02/2014;10.904746695707797
08/02/2014;2.8722352084238083
09/02/2014;2.695551301276957
10/02/2014;2.586925496957877
11/02/2014;4.6446728423082035
12/02/2014;10.607825033770814
13/02/2014;10.798748380331505
14/02/2014;6.4714022634161195
15/02/2014;12.714562507597561
16/02/2014;12.959971202339373
17/02/2014;5.692278409095464
18/02/2014;14.347139082386933
19/02/2014;11.488011094861845
20/02/2014;3.8926437091346577
21/02/2014;6.926648996786451
22/02/2014;5.790999057667452
23/02/2014;7.604919061557773
24/02/2014;8.721048471495209
25/02/2014;16.39853568199438
26/02/2014;14.673093724615297
27/02/2014;8.892707328746717
28/02/2014;5.25687710263042
01/03/2014;5.0121894508620946
02/03/2014;6.299459426436159
03/03/2014;10.733426149479216
04/03/2014;2.5237480842715336
05/03/2014;8.740035627143428
06/03/2014;12.747639792164167
07/03/2014;8.7383275081714
08/03/2014;12.255169849263297
09/03/2014;12.761696261167526
10/03/2014;15.013498582768065
11/03/2014;14.965702370802562
12/03/2014;16.861338991500343
13/03/2014;18.960059274311607
14/03/2014;24.621675615595645
15/03/2014;23.99925820959939
16/03/2014;25.005564054515627
17/03/2014;31.83905783554512
18/03/2014;17.779283807872485
19/03/2014;20.671185137912413
20/03/2014;21.171584374374813
21/03/2014;21.440276189645132
22/03/2014;16.64173684484429
23/03/2014;4.878605259698173
24/03/2014;3.5960848195749984
25/03/2014;6.352526209497717
26/03/2014;3.537100878192319
27/03/2014;6.450745857941608
28/03/2014;12.603086215410903
29/03/2014;14.750313387056288
30/03/2014;11.702762254517177
31/03/2014;10.16356265048186
01/04/2014;8.070790209730438
02/04/2014;11.188461584105786
03/04/2014;11.849238435261087
04/04/2014;9.51169201215992
05/04/2014;5.8172915235472225
06/04/2014;12.459468622671233
07/04/2014;14.646229199852854
08/04/2014;8.958008621498529
09/04/2014;6.722008783639305
10/04/2014;5.595847257466078
11/04/2014;10.421327372888724
12/04/2014;8.83706542816427
13/04/2014;9.85903534549095
14/04/2014;9.22435929760009
15/04/2014;7.918541599789427
16/04/2014;2.9564150709909973
17/04/2014;4.6431926483073385
18/04/2014;6.061044367217951
19/04/2014;6.572556706104014
20/04/2014;6.742937653986835
21/04/2014;7.593351176013756
22/04/2014;10.143345918920305
23/04/2014;7.986964557030134
24/04/2014;10.909852703302148
25/04/2014;10.478279121230475
26/04/2014;9.302801808549297
27/04/2014;6.9114421078361845
28/04/2014;6.501141360340019
29/04/2014;4.25988284943001
30/04/2014;4.433059009764757
01/05/2014;4.825524645174543
02/05/2014;4.671319044257204
03/05/2014;3.88335657266693
04/05/2014;3.001380791538395
05/05/2014;4.474622090905905
06/05/2014;5.350084330855558
07/05/2014;5.185089543628293
08/05/2014;6.473331720940768
09/05/2014;6.979668869191031
10/05/2014;6.659036010007063
11/05/2014;5.666937043931749
12/05/2014;3.0641940369658793
13/05/2014;2.4692785666528008
14/05/2014;1.9184820882282256
15/05/2014;2.333651168081622
16/05/2014;3.110949950468623
17/05/2014;3.566367370901733
18/05/2014;4.325087724988245
19/05/2014;3.793133080533395
20/05/2014;4.722853403000368
21/05/2014;6.127748315125413
22/05/2014;6.054002613491482
23/05/2014;5.795017040934828
24/05/2014;4.442677553139933
25/05/2014;5.101528627514092
26/05/2014;3.413042161985722
27/05/2014;2.4021996891149033
28/05/2014;3.3819259544517366
29/05/2014;4.35966307372788
30/05/2014;6.981637833100214
31/05/2014;3.517295378829456
01/06/2014;4.061317852056689
02/06/2014;4.72634957043661
03/06/2014;5.910659114353841
04/06/2014;7.074360050204067
05/06/2014;6.234918759460674
06/06/2014;5.797595450909623
07/06/2014;8.437668345230856
08/06/2014;7.766526122583965
09/06/2014;6.047014562515354
10/06/2014;7.783410046001276
11/06/2014;10.545803005181238
12/06/2014;10.537976123128525
13/06/2014;9.410481539534198
14/06/2014;6.772012960995592
15/06/2014;3.4124498592896595
16/06/2014;3.404997303124059
17/06/2014;3.803378030792386
18/06/2014;4.995099910478612
19/06/2014;6.384522988067733
20/06/2014;7.075991885695193
21/06/2014;7.024813738962014
22/06/2014;6.573391898721456
23/06/2014;5.684965585254961
24/06/2014;5.162975027370784
25/06/2014;6.492610325374537
26/06/2014;4.274108389392495
27/06/2014;5.826419609536727
28/06/2014;6.713584762066603
29/06/2014;6.1490973866855105
30/06/2014;3.2385913847380623
01/07/2014;3.8319273430854084
02/07/2014;4.28920328559147
03/07/2014;5.438374140196377
04/07/2014;5.938796265899307
05/07/2014;5.703279906879953
06/07/2014;6.147066885104521
07/07/2014;4.675739522976736
08/07/2014;3.1928447464560397
09/07/2014;2.7596862115131944
10/07/2014;2.6138817541882577
11/07/2014;2.558604306496351
12/07/2014;2.828024974341194
13/07/2014;4.146846446169176
14/07/2014;4.161877842310653
15/07/2014;3.7702596604699803
16/07/2014;4.6994440846973
17/07/2014;5.624074319943196
18/07/2014;7.3741365332335045
19/07/2014;6.974081676150462
20/07/2014;8.802865442136923
21/07/2014;5.864771899912093
22/07/2014;3.0894531151369122
23/07/2014;4.557528996374028
24/07/2014;7.247571305155009
25/07/2014;7.1275635091794864
26/07/2014;6.557420243646968
27/07/2014;4.296926182011763
28/07/2014;5.390728810015652
29/07/2014;5.06209836812276
30/07/2014;2.6787431231906846
31/07/2014;4.996864912491693
01/08/2014;7.3726459576851795
02/08/2014;7.571312016957
03/08/2014;7.004247629203426
04/08/2014;7.043322359522183
05/08/2014;8.091983120834106
06/08/2014;6.065304506197572
07/08/2014;4.902446453066336
08/08/2014;6.599212999307421
09/08/2014;6.378510423584117
10/08/2014;7.099992145101229
11/08/2014;7.424164402981599
12/08/2014;10.284455623063776
13/08/2014;8.730924930340715
14/08/2014;2.6404967829326194
15/08/2014;2.7042112754761343
16/08/2014;2.5455096344360046
17/08/2014;2.2915826132960824
18/08/2014;3.055432671846615
19/08/2014;4.389708330151108
20/08/2014;5.164877132409149
21/08/2014;4.224735438948049
22/08/2014;4.11527422722429
23/08/2014;6.004890039149258
24/08/2014;3.9611198978758755
25/08/2014;3.6180919863387113
26/08/2014;5.364901656778096
27/08/2014;3.9331622253402005
28/08/2014;3.6982785096392035
29/08/2014;4.615241332186593
30/08/2014;6.213666236176931
31/08/2014;5.513002266734839
01/09/2014;2.4597906025437015
02/09/2014;2.414984632304145
03/09/2014;3.8370331158499336
04/09/2014;6.867878161039617
05/09/2014;10.427847835864005
06/09/2014;11.843968431154886
07/09/2014;12.832625938679806
08/09/2014;12.589201457360211
09/09/2014;13.844171730158145
10/09/2014;8.463101435403512
11/09/2014;4.60353315704974
12/09/2014;3.46818859744817
13/09/2014;4.769070199457119
14/09/2014;5.846428695114122
15/09/2014;7.39706048292779
16/09/2014;7.421247258544216
17/09/2014;5.348147977640232
18/09/2014;7.651036766419808
19/09/2014;13.644904078543187
20/09/2014;8.997584173296623
21/09/2014;7.387453042136299
22/09/2014;6.09979818266025
23/09/2014;5.147219254035089
24/09/2014;6.344156007455239
25/09/2014;9.195216827452308
26/09/2014;7.312332467734814
27/09/2014;7.995388875163372
28/09/2014;5.092269904507384
29/09/2014;6.935337264930461
30/09/2014;8.924191860723695
01/10/2014;12.978344518194596
02/10/2014;7.047059993859794
03/10/2014;6.253745925260914
04/10/2014;8.697961249601683
05/10/2014;8.519067435794407
06/10/2014;11.205592326323192
07/10/2014;16.403183620505864
08/10/2014;10.53314617988136
09/10/2014;8.67231984107072
10/10/2014;8.693811946575355
11/10/2014;8.511859331807743
12/10/2014;6.765718659096294
13/10/2014;8.281255055956745
14/10/2014;5.63771361555798
15/10/2014;8.15607782135911
16/10/2014;6.013808613734953
17/10/2014;4.879534554546744
18/10/2014;7.204441124531958
19/10/2014;7.59863114845761
20/10/2014;11.096977332234383
21/10/2014;9.427791398763656
22/10/2014;3.0705707652623664
23/10/2014;3.866238257764942
24/10/2014;4.782008988481167
25/10/2014;4.887108380057746
26/10/2014;7.208092296918233
27/10/2014;6.846112902503875
28/10/2014;9.449560342686635
29/10/2014;14.819153964145674
30/10/2014;15.472757177220451
31/10/2014;12.105392594966624
01/11/2014;11.656462277199678
02/11/2014;14.735200922025575
03/11/2014;18.348163954903253
04/11/2014;6.238081324555807
05/11/2014;4.898522432396809
06/11/2014;6.187515536716415
07/11/2014;6.668117697412769
08/11/2014;6.228136609494686
09/11/2014;6.703088898418678
10/11/2014;4.871978833029668
11/11/2014;14.538990051569087
12/11/2014;13.363392518129613
13/11/2014;6.228280765439073
14/11/2014;11.236617828443418
15/11/2014;8.042875787367423
16/11/2014;4.8365082547762395
17/11/2014;4.550315441482178
18/11/2014;3.252603727783115
19/11/2014;5.6227924261681945
20/11/2014;11.544255026518428
21/11/2014;24.144551224804655
22/11/2014;30.30109302263611
23/11/2014;21.86193593033823
24/11/2014;26.206986671193263
25/11/2014;23.9904537624783
26/11/2014;22.17227899936976
27/11/2014;9.005613676701428
28/11/2014;16.67614575820801
29/11/2014;14.218599543306564
30/11/2014;12.616479961923535
01/12/2014;7.850792569832669
02/12/2014;4.597725523827717
03/12/2014;1.6834251449879918
04/12/2014;5.514613377552964
05/12/2014;6.772800183917085
06/12/2014;8.803091549782163
07/12/2014;5.348054200970025
08/12/2014;5.358666291915708
09/12/2014;4.731163503954392
10/12/2014;6.616717952851261
11/12/2014;17.099923552988574
12/12/2014;30.38581485954863
13/12/2014;48.51515481792609
14/12/2014;36.73141655769401
15/12/2014;28.62341713673216
16/12/2014;11.488422553628807
17/12/2014;17.284699526217782
18/12/2014;20.719166411293877
19/12/2014;24.020889027559708
20/12/2014;21.025111714506878
21/12/2014;16.29031365177878
22/12/2014;29.78172282681843
23/12/2014;31.3371934129439
24/12/2014;9.762443918429097
25/12/2014;9.087042078044679
26/12/2014;11.14002862719612
27/12/2014;12.000012552820975
28/12/2014;3.3857522007023566
29/12/2014;8.056295664682
30/12/2014;7.662409028162559
31/12/2014;5.2925874535783946
01/01/2015;5.739635282092625
02/01/2015;16.036193973488277
03/01/2015;37.66700581900345
04/01/2015;35.47357089287705
05/01/2015;16.70686119475905
06/01/2015;25.315538064638773
07/01/2015;44.87901136241801
08/01/2015;29.886864276727042
09/01/2015;13.526219745477041
10/01/2015;10.2484707824058
11/01/2015;22.5380838284062
12/01/2015;7.6978656661705145
13/01/2015;25.08251074637863
14/01/2015;22.889004111289978
15/01/2015;9.138429542051421
16/01/2015;11.925407142109341
17/01/2015;5.536085389035658
18/01/2015;8.407653270513233
19/01/2015;14.230199136197195
20/01/2015;13.72904267594415
21/01/2015;8.555039507303908
22/01/2015;3.5160242048195665
23/01/2015;4.739609141371331
24/01/2015;5.034541908226731
25/01/2015;4.480395329753642
26/01/2015;3.927606234626526
27/01/2015;10.263910267030308
28/01/2015;10.38018490136054
29/01/2015;28.5817784094514
30/01/2015;6.644477208658193
31/01/2015;21.378598295648892
01/02/2015;13.699703249500857
02/02/2015;13.054822927690596
03/02/2015;8.652896239939663
04/02/2015;2.9080802722781627
05/02/2015;2.1636419497973596
06/02/2015;1.8792307896358478
07/02/2015;6.9322528693411085
08/02/2015;13.228270617127418
09/02/2015;6.612423628273577
10/02/2015;17.945286734898886
11/02/2015;19.561594906267622
12/02/2015;15.657002331734367
13/02/2015;18.03046757214599
14/02/2015;21.411788846238608
15/02/2015;18.284643494420582